Regional Weather Roundup
Issued by NWS Sioux Falls, SD

Home | Current Version | Previous Version | Graphics & Text | Print | Product List | Glossary On
Versions: 1 2 3 4 5 6 7 8 9 10 11 12 13 14 15 16 17 18 19 20 21 22 23 24 25 26 27 28 29 30 31 32 33 34 35 36 37 38 39 40 41 42 43 44 45 46 47 48 49 50
000
ASUS43 KFSD 110810
RWRFSD

WEATHER ROUNDUP FOR SE SOUTH DAKOTA/SW MINNESOTA/NW IOWA
NATIONAL WEATHER SERVICE SIOUX FALLS SD
300 AM CDT FRI JUL 11 2014

NOTE: "FAIR" INDICATES FEW OR NO CLOUDS BELOW 12,000 FEET WITH NO
SIGNIFICANT WEATHER AND OR OBSTRUCTIONS TO VISIBILITY.


SDZ038>040-050-052>070-110900-
SOUTHEAST SOUTH DAKOTA

CITY           SKY/WX    TMP DP  RH WIND       PRES   REMARKS
CHAMBERLAIN    MOCLDY    71  69  94 S7        29.85S
HURON          MOCLDY    73  67  81 S10G23    29.82F
MADISON        CLOUDY    68  68 100 S15G23    29.90F
MITCHELL       CLOUDY    72  69  90 S18G30    29.86F
SIOUX FALLS    LGT RAIN  71  67  87 S22G32    29.93F
WINNER         FAIR      71  64  78 S12       29.88R
YANKTON        CLOUDY    70  66  88 E7        29.96S
$$

MNZ071-072-080-081-089-090-097-098-110900-
SOUTHWEST MINNESOTA

CITY           SKY/WX    TMP DP  RH WIND       PRES   REMARKS
FAIRMONT       CLOUDY    70  57  64 S13       30.02R
JACKSON        CLOUDY    70  59  68 S18G25    30.00F
LUVERNE        CLOUDY    70  64  83 S16       29.98R
MARSHALL       CLOUDY    73  64  73 SW33G40   29.88F
MONTEVIDEO     CLOUDY    73  66  78 SW12G21   29.88F
PIPESTONE      CLOUDY    70  66  88 S21G30    29.95S
REDWOOD FALLS  LGT RAIN  72  62  71 S20G25    29.93S
TRACY          CLOUDY    71  65  83 S18       29.93F
WINDOM         CLOUDY    70  61  73 S16G24    29.98F
WORTHINGTON    CLOUDY    68  64  88 S12G20    30.02R THUNDER
$$

IAZ001>003-012>014-020>022-031-032-NEZ013-014-SDZ071-110900-
NORTHWEST IOWA

CITY           SKY/WX    TMP DP  RH WIND       PRES   REMARKS
CHEROKEE       CLOUDY    69  65  85 S7        30.01S
DENISON        MOCLDY    68  64  88 S13G18    29.99F
ESTHERVILLE    CLOUDY    69  59  70 S14G23    30.02S
LE MARS        CLOUDY    72  66  83 S9G18     29.99F
ORANGE CITY    LGT RAIN  73  64  73 S10       30.01R
SHELDON        CLOUDY    70  64  83 S9        30.01R
SIOUX CITY     CLOUDY    72  66  81 SE9       29.97F
SPENCER        CLOUDY    69  61  75 S10       30.02R
STORM LAKE     CLOUDY    66  64  94 S9        30.04R
$$

ABBREVIATIONS USED IN REMARKS
   TC - TEMPERATURE IN CELSIUS
  WCI - WIND CHILL INDEX
   HX - HEAT INDEX
  VSB - VISIBILITY



USA.gov is the U.S. government's official web portal to all federal, state and local government web resources and services.